Weather History for Chadron, NE

Change the Weather History Date:

Wednesday, June 12, 2013

  Actual Average Record
Temperature  
Mean Temperature 61 °F 65 °F  
Max Temperature 70 °F 80 °F 102 °F (1956)
Min Temperature 52 °F 50 °F 32 °F (1947)
Degree Days  
Heating Degree Days 4 3  
Month to date heating degree days 56 49  
Since 1 June heating degree days 56 49  
Since 1 July heating degree days 6871 7114  
Cooling Degree Days 0 3  
Month to date cooling degree days 17 25  
Year to date cooling degree days 45 45  
Since 1 June cooling degree days 17 25  
Growing Degree Days 12 (Base 50)    
Moisture  
Dew Point 55 °F    
Average Humidity 76    
Maximum Humidity 93    
Minimum Humidity 59    
Precipitation  
Precipitation 0.00 in 0.11 in 1.14 in (1958)
Month to date precipitation 0.66 1.45  
Year to date precipitation 6.88 8.39  
Sea Level Pressure  
Sea Level Pressure 30.06 in    
Wind  
Wind Speed 8 mph (NE)    
Max Wind Speed 20 mph    
Max Gust Speed 26 mph    
Visibility 10 miles    
Events      
T = Trace of Precipitation, MM = Missing Value Source: NWS Daily Summary

Daily Weather History Graph

Daily Weather History Graph

Search for Another Location

Airport:

Trip Planner

Search our weather history database for the weather conditions in past years. The results will help you decide how hot, cold, wet, or windy it might be!

Date:

Astronomy

Jun. 12, 2013 Rise Set
Actual Time 5:13 AM MDT 8:31 PM MDT
Civil Twilight 4:38 AM MDT 9:06 PM MDT
Nautical Twilight 3:52 AM MDT 9:52 PM MDT
Astronomical Twilight 2:57 AM MDT 10:48 PM MDT
Moon 8:58 AM MDT (6/12) 11:03 PM MDT (6/12)
Length of Visible Light 16h 28m
Length of Day
15h 18m
Waxing Crescent, 14% of the Moon is Illuminated
Jun 12
Waxing Crescent
Jun 16
First Quarter
Jun 23
Full
Jun 29
Last Quarter
Jul 8
New

Hourly Weather History & Observations

Time (MDT) Temp. Dew Point Humidity Pressure Visibility Wind Dir Wind Speed Gust Speed Precip Events Conditions
12:53 AM 59.0 °F 55.9 °F 90% 29.85 in 10.0 mi Calm Calm - N/A   Clear
1:53 AM 59.0 °F 55.0 °F 87% 29.90 in 10.0 mi North 6.9 mph - N/A   Scattered Clouds
2:53 AM 59.0 °F 55.0 °F 87% 29.91 in 10.0 mi Calm Calm - N/A   Partly Cloudy
3:53 AM 55.9 °F 54.0 °F 93% 29.92 in 10.0 mi SSW 5.8 mph - N/A   Clear
4:53 AM 54.0 °F 52.0 °F 93% 29.94 in 10.0 mi South 3.5 mph - N/A   Clear
5:53 AM 55.9 °F 53.1 °F 90% 29.98 in 10.0 mi SW 4.6 mph - N/A   Clear
6:53 AM 60.1 °F 54.0 °F 80% 29.99 in 10.0 mi SSW 4.6 mph - N/A   Clear
7:53 AM 64.0 °F 55.9 °F 75% 29.99 in 10.0 mi WNW 6.9 mph - N/A   Clear
8:53 AM 66.9 °F 57.9 °F 73% 30.01 in 10.0 mi WNW 9.2 mph - N/A   Clear
9:42 AM 66.2 °F 59.0 °F 78% 30.08 in 10.0 mi NNE 6.9 mph - N/A   Mostly Cloudy
9:53 AM 68.0 °F 60.1 °F 76% 30.03 in 10.0 mi North 10.4 mph - N/A   Scattered Clouds
10:53 AM 68.0 °F 57.9 °F 70% 30.07 in 10.0 mi NNE 8.1 mph - N/A   Partly Cloudy
11:53 AM 68.0 °F 57.9 °F 70% 30.09 in 10.0 mi NNE 13.8 mph 23.0 mph N/A   Partly Cloudy
12:30 PM 66.2 °F 55.4 °F 68% 30.15 in 10.0 mi NE 17.3 mph 26.5 mph N/A   Mostly Cloudy
12:41 PM 64.4 °F 55.4 °F 73% 30.15 in 10.0 mi NE 19.6 mph - N/A   Mostly Cloudy
12:53 PM 66.9 °F 57.0 °F 70% 30.12 in 10.0 mi NE 17.3 mph 21.9 mph N/A   Mostly Cloudy
1:38 PM 66.2 °F 55.4 °F 68% 30.14 in 10.0 mi NE 19.6 mph 25.3 mph N/A   Mostly Cloudy
1:53 PM 66.9 °F 55.9 °F 68% 30.11 in 10.0 mi NE 16.1 mph 25.3 mph N/A   Scattered Clouds
2:34 PM 68.0 °F 55.4 °F 64% 30.14 in 10.0 mi NNE 10.4 mph 21.9 mph N/A   Mostly Cloudy
2:50 PM 69.8 °F 55.4 °F 60% 30.14 in 10.0 mi ENE 11.5 mph - N/A   Mostly Cloudy
2:53 PM 69.1 °F 55.0 °F 61% 30.11 in 10.0 mi ENE 15.0 mph 21.9 mph N/A   Mostly Cloudy
3:53 PM 69.1 °F 55.9 °F 63% 30.11 in 10.0 mi ENE 13.8 mph 17.3 mph N/A   Mostly Cloudy
4:53 PM 69.1 °F 55.0 °F 61% 30.08 in 10.0 mi NE 13.8 mph - N/A   Clear
5:53 PM 69.1 °F 55.0 °F 61% 30.08 in 10.0 mi ENE 11.5 mph - N/A   Partly Cloudy
6:53 PM 68.0 °F 54.0 °F 61% 30.07 in 10.0 mi ENE 11.5 mph - N/A   Clear
7:53 PM 64.9 °F 55.0 °F 70% 30.08 in 10.0 mi East 9.2 mph - N/A   Clear
8:53 PM 62.1 °F 53.1 °F 72% 30.09 in 10.0 mi ESE 8.1 mph - N/A   Clear
9:53 PM 57.9 °F 52.0 °F 81% 30.09 in 10.0 mi East 6.9 mph - N/A   Clear
10:53 PM 55.0 °F 51.1 °F 86% 30.12 in 10.0 mi NE 4.6 mph - N/A   Clear
11:53 PM 54.0 °F 52.0 °F 93% 30.13 in 10.0 mi Calm Calm - N/A   Clear